CW7054 Weather Reports


Display with metric or nautical units.
time (UTC)temp
F
wind
direction
speed
MPH
gust
MPH
rain 1hr
in
rain 24hr
in
rain mn
in
humidity
%
barometer
mb
20260503014510 49 182 0.0 0.0 0.00 0.00 0.00 90 1009.9
20260503013008 49 182 0.0 0.0 0.00 0.00 0.00 90 1010.0
20260503011510 49 182 0.0 0.0 0.00 0.00 0.00 89 1009.9
20260503010007 49 182 0.0 2.0 0.00 0.00 0.00 89 1010.0
20260503004507 50 182 0.0 0.0 0.00 0.00 0.00 89 1009.8
20260503003006 50 182 0.0 0.0 0.00 0.00 0.00 88 1009.8
20260503001508 50 182 0.0 0.0 0.00 0.00 0.00 88 1009.7
20260503000013 51 182 0.0 0.0 0.00 0.00 0.00 88 1009.6
20260502234508 51 182 0.0 0.0 0.00 0.00 0.00 88 1009.4
20260502233005 51 182 0.0 0.0 0.00 0.00 0.00 87 1009.6
20260502231504 51 182 0.0 0.0 0.00 0.00 0.00 87 1009.6
20260502230004 52 182 0.0 2.0 0.00 0.00 0.00 87 1009.7
20260502224504 52 182 0.0 0.0 0.00 0.00 0.00 86 1009.8
20260502223003 52 182 0.0 0.0 0.00 0.00 0.00 87 1009.6
20260502221502 52 182 0.0 2.0 0.00 0.00 0.00 87 1009.6
20260502220001 52 182 0.0 0.0 0.00 0.00 0.00 87 1009.6
20260502214617 52 182 0.0 0.0 0.00 0.00 0.00 87 1009.5
20260502213121 52 182 0.0 0.0 0.00 0.00 0.00 88 1009.4
20260502211559 52 182 0.0 1.0 0.00 0.00 0.00 89 1009.5
20260502210056 52 180 0.0 0.0 0.00 0.00 0.00 89 1009.7
20260502204556 52 180 0.0 2.0 0.00 0.00 0.00 89 1009.6
20260502203113 52 180 0.0 0.0 0.00 0.00 0.00 89 1009.6
20260502201553 52 180 0.0 0.0 0.00 0.00 0.00 90 1009.7
20260502200056 52 180 0.0 2.0 0.00 0.00 0.00 90 1009.9
20260502194551 52 180 0.0 2.0 0.00 0.00 0.00 90 1010.0
20260502193048 52 180 0.0 2.0 0.00 0.00 0.00 90 1010.2
20260502191548 52 180 0.0 2.0 0.00 0.00 0.00 90 1010.4
20260502190044 51 180 0.0 4.0 0.00 0.00 0.00 90 1010.5
20260502184542 52 184 1.0 4.0 0.00 0.00 0.00 90 1010.6
20260502183042 52 234 0.0 4.0 0.00 0.00 0.00 90 1010.7
20260502181540 52 237 0.0 2.0 0.00 0.00 0.00 90 1010.7
20260502163040 51 242 0.0 4.0 0.00 0.00 0.00 89 1011.0
20260502161536 51 240 0.0 3.0 0.00 0.00 0.00 89 1011.1
20260502151524 51 180 1.0 5.0 0.00 0.00 0.00 89 1011.5
20260502123015 52 183 0.0 3.0 0.00 0.00 0.00 86 1011.8
20260502121513 51 182 0.0 4.0 0.00 0.00 0.00 86 1011.9
20260502114507 51 261 0.0 4.0 0.00 0.00 0.00 87 1012.1
20260502113006 50 180 0.0 3.0 0.00 0.00 0.00 88 1011.8
20260502111503 50 200 0.0 3.0 0.00 0.00 0.00 88 1011.7
20260502110001 49 202 0.0 4.0 0.00 0.00 0.00 88 1011.7
20260502104559 49 165 0.0 6.0 0.00 0.00 0.00 89 1011.4
20260502103059 49 202 0.0 3.0 0.00 0.00 0.00 89 1011.5
20260502101604 49 175 0.0 6.0 0.00 0.00 0.00 89 1011.6
20260502100105 49 179 0.0 7.0 0.00 0.00 0.00 89 1011.6
20260502080105 49 221 0.0 5.0 0.00 0.00 0.00 88 1011.5
20260502070100 49 172 0.0 8.0 0.00 0.00 0.00 87 1011.5
20260502064549 49 174 0.0 6.0 0.00 0.00 0.00 86 1011.8
20260502063041 49 186 0.0 7.0 0.00 0.00 0.00 85 1011.9
20260502061541 49 178 0.0 6.0 0.00 0.00 0.00 85 1012.0
20260502060040 49 163 0.0 7.0 0.00 0.00 0.00 85 1011.9
20260502054538 49 177 0.0 6.0 0.00 0.00 0.00 85 1011.9
20260502053038 49 174 0.0 3.0 0.00 0.00 0.00 85 1012.1
20260502051537 50 178 0.0 4.0 0.00 0.00 0.00 86 1012.1
20260502050041 49 181 0.0 4.0 0.00 0.00 0.00 85 1012.1
20260502044531 50 166 0.0 6.0 0.00 0.00 0.00 85 1012.3
20260502043034 50 215 0.0 5.0 0.00 0.00 0.00 84 1012.3
20260502041628 50 171 0.0 5.0 0.00 0.00 0.00 84 1012.5
20260502040024 50 156 0.0 6.0 0.00 0.00 0.00 83 1012.3
20260502034524 50 186 1.0 7.0 0.00 0.00 0.00 83 1012.3
20260502033026 50 198 0.0 8.0 0.00 0.00 0.00 83 1012.5
20260502031523 50 182 0.0 5.0 0.00 0.00 0.00 83 1012.7
20260502030023 50 167 2.0 8.0 0.00 0.00 0.00 82 1012.7
20260502024526 50 155 2.0 7.0 0.00 0.00 0.00 82 1012.6
20260502023020 50 199 0.0 6.0 0.00 0.00 0.00 83 1012.4
20260502021518 50 263 0.0 6.0 0.00 0.00 0.00 83 1012.4
20260502020016 50 200 0.0 3.0 0.00 0.00 0.00 83 1012.3